STARLINK-11352, 62880

Orbit data source: Space-Track

STARLINK-11352, 62880 is a payload satellite owned by SpaceX/Seattle (US) in LEO that was launched on Tue, 04 Feb 2025 UTC via an FALCON 9 launch vehicle from the Air Force Eastern Test Range (AFETR). Payload-class satellites include a variety of spacecraft equipped with specific instruments for various scientific and technological missions. These include communications satellites like Starlink; space stations such as the ISS; scientific satellites like the Hubble; Earth observation satellites from companies like Planet Labs, Umbra, and HawkEye 360; GPS; miniature CubeSats for education and research; and military/defense satellites.

Loading next visibility...
Identifier
62880, 2025-024B
Orbit
LEO
Country
Flag of USUS
Related business
Manufacturer
SpaceX/Seattle
Mission
Operational Commercial Communications
Bus & Motor
STARLINK V2MD, Unknown motor
Mass
960 kg wet, ~910 kg dry
Launch date (UTC)
2025-02-04 (9 months ago)
Launch vehicle
FALCON 9
Launch site
Air Force Eastern Test Range (AFETR)
Object type
Payload
Rocket body
Debris
Shape & HBR
Box + 2 Pan, 18.1 m
Radar Cross Section
36.964 m², Large (>1 m²)

Expand to show TLE details & history
Last TLE update: 19 hours ago

TLE from 19 hours ago
0 STARLINK-11352
1 62880U 25024B   25302.86406766  .00289686  00000-0  21665-2 0  9993
2 62880  42.9993 249.8087 0004511 291.3184  68.7202 15.71018606 42892
Epoch: 2025-10-29T20:44Z
TLE epoch observation values (Epoch: 2025-10-29T20:44:15.445Z)
Latitude
-0.00003°
Longitude
-99.68678°
Altitude
354.655 km
Speed
7.699 km/s
True Right ascension
16h 39m 14s
True Declination
0° 00' 00"
Sunlit
Object was in daylight at epoch
Visualization orbit readout
Latitude
Unknown
Longitude
Unknown
Altitude
Unknown
Speed
Unknown
Apparent Right ascension
Unknown
Apparent Declination
Unknown
Sunlit
N/A
Visualization observer readout
Local Sidereal Time
11:29:37
Azimuth
Unknown
Elevation
Unknown
Doppler factor
Unknown
Orbital elements
Apogee altitude
361.005 km
Perigee altitude
354.928 km
Semi-major axis
6,736.103 km
Eccentricity
0.00045
Inclination
42.9993°
RAAN
249.8087°
Arg. of periapsis
291.3184°
True anomaly
68.76838°
Mean anomaly
68.7202°
Eccentric anomaly
68.74429°
Mean motion
3.92582 °/min
Orbital period
91.7 mins
BSTAR
0.0021665
Loading maneuver chart data...
Computing Atmospheric mass density...
Loading historical data...
Loading historical data...
Loading historical data...
Loading historical data...
Loading historical data...
Loading historical data...
Loading historical data...

Documentation

Showing up to 5 results
|